This is the latest recevied weather packets stored in our database for station/object DC4AT. If no packets are shown the sender has not sent any weather packets the latest 10 day(s).
| Time | Temp. | Humidity | Pressure | Rain* | Wind** | Luminosity | Snow |
|---|---|---|---|---|---|---|---|
| 1777149245 | 10° C | 69% | 1018.9 hPa | 0 mm | - | 0 W/m² | - |
| 1777148645 | 10° C | 67% | 1018.7 hPa | 0 mm | - | 0 W/m² | - |
| 1777148045 | 10.56° C | 65% | 1018.6 hPa | 0 mm | - | 0 W/m² | - |
| 1777147445 | 10.56° C | 63% | 1018.2 hPa | 0 mm | - | 0 W/m² | - |
| 1777146845 | 11.11° C | 60% | 1017.9 hPa | 0 mm | - | 0 W/m² | - |
| 1777146245 | 11.11° C | 59% | 1017.7 hPa | 0 mm | - | 0 W/m² | - |
| 1777145645 | 11.67° C | 57% | 1017.7 hPa | 0 mm | - | 0 W/m² | - |
| 1777145045 | 12.22° C | 56% | 1017.7 hPa | 0 mm | - | 0 W/m² | - |
| 1777144445 | 12.22° C | 54% | 1017.6 hPa | 0 mm | - | 0 W/m² | - |
| 1777143845 | 12.78° C | 53% | 1017.4 hPa | 0 mm | - | 0 W/m² | - |
| 1777143245 | 12.78° C | 52% | 1017.4 hPa | 0 mm | - | 0 W/m² | - |
| 1777142645 | 13.33° C | 51% | 1017.4 hPa | 0 mm | - | 0 W/m² | - |
| 1777142045 | 13.33° C | 50% | 1017.4 hPa | 0 mm | - | 5 W/m² | - |
| 1777141445 | 13.89° C | 50% | 1017.3 hPa | 0 mm | - | 9 W/m² | - |
| 1777140846 | 13.89° C | 49% | 1017.2 hPa | 0 mm | - | 19 W/m² | - |
| 1777140245 | 14.44° C | 47% | 1017.1 hPa | 0 mm | - | 32 W/m² | - |
| 1777139645 | 14.44° C | 46% | 1017.1 hPa | 0 mm | - | 49 W/m² | - |
| 1777139045 | 15° C | 46% | 1017.1 hPa | 0 mm | - | 65 W/m² | - |
| 1777138445 | 15° C | 46% | 1017.1 hPa | 0 mm | - | 91 W/m² | - |
| 1777137846 | 15.56° C | 45% | 1017.1 hPa | 0 mm | - | 121 W/m² | - |
| 1777137246 | 15.56° C | 45% | 1017.1 hPa | 0 mm | - | 139 W/m² | - |
| 1777136646 | 15.56° C | 44% | 1017 hPa | 0 mm | - | 165 W/m² | - |
| 1777136046 | 15.56° C | 44% | 1017.1 hPa | 0 mm | - | 185 W/m² | - |
| 1777135446 | 15.56° C | 43% | 1016.9 hPa | 0 mm | - | 207 W/m² | - |
| 1777134846 | 15.56° C | 42% | 1017 hPa | 0 mm | - | 236 W/m² | - |
* Rain latest hour (hover to see other rain measurements)
** Current wind speed in m/s (hover to see current wind gust speed)